Regional Weather Roundup
Issued by NWS

Home | Current Version | Previous Version | Graphics & Text | Print | Product List | Glossary On
Versions: 1 2 3 4 5 6 7 8 9 10 11 12 13 14 15 16 17 18 19 20 21 22 23 24 25 26 27 28 29 30 31 32 33 34 35 36 37 38 39 40 41 42 43 44 45 46 47 48 49 50
768
ASUS45 KSLC 181810
RWRUT

UTAH REGIONAL WEATHER ROUNDUP
NATIONAL WEATHER SERVICE SALT LAKE CITY UT
1200 PM MDT WED OCT 18 2017

UTZ001>011-023>025-181900-

NORTHERN UTAH

CITY           SKY/WX    TMP DP  RH WIND       PRES   REMARKS
BRIGHAM CITY   SUNNY     58  27  30 CALM      30.23S
HILL AFB       SUNNY     61  23  23 E3        30.22F
LOGAN            N/A     55  26  32 CALM      30.24F
OGDEN          SUNNY     60  28  29 N5        30.22S
SALT LAKE CITY MOSUNNY   63  31  30 N6        30.21S
TOOELE VALLEY  SUNNY     54  36  50 N7        30.23S
WENDOVER       NOT AVBL
WEST JORDAN    SUNNY     61  28  28 CALM      30.22S

$$

UTZ011>015-024>027-181900-

CENTRAL/NORTHEAST UTAH

CITY           SKY/WX    TMP DP  RH WIND       PRES   REMARKS
PROVO AIRPORT  SUNNY     53  35  50 W7        30.24S
MOAB/CANYONLAN SUNNY     65  13  13 CALM      30.21F
DELTA          MOSUNNY   57  21  24 CALM      30.23S
PRICE          SUNNY     62  14  15 VRB3      30.27S
RICHFIELD      SUNNY     61  19  20 CALM      30.25F
ROOSEVELT      SUNNY     59  18  20 CALM      30.29S
VERNAL         SUNNY     59  20  22 SE5       30.26S

$$

UTZ013>016-019>022-027-181900-

SOUTHERN UTAH

CITY           SKY/WX    TMP DP  RH WIND       PRES   REMARKS
BRYCE CANYON   MOSUNNY   62  11  13 CALM      30.33S
CEDAR CITY     CLOUDY    63  18  17 NW5       30.23F
MILFORD        MOSUNNY   61  18  18 N6        30.22F
ST GEORGE      CLEAR     63  25  23 CALM      30.13S
HANKSVILLE     MOSUNNY   61  14  16 CALM      30.25F
KANAB          SUNNY     72  23  16 CALM      30.23F
BLANDING         N/A     66  10  11 SE6       30.34R

$$

REGIONAL REPORTS     COLORADO/ARIZONA

CITY           SKY/WX    TMP DP  RH WIND       PRES   REMARKS
CRAIG, CO      SUNNY     60  18  19 E3        30.30F
GRAND JUNCTION SUNNY     62  15  16 SE8       30.25F
RIFLE, CO      SUNNY     58  15  18 N5        30.28F
MONTROSE, CO   CLOUDY    60  17  18 CALM      30.29F
CORTEZ, CO     CLOUDY    65   7  10 SW5       30.26F
COLORADO CITY    N/A     72  28  20 S8        30.21F
PAGE, AZ       MOSUNNY   68  26  20 VRB3      30.18F
GRAND CANYON   SUNNY     71  25  17 SW10      30.29S
KINGMAN, AZ    CLOUDY    79  32  18 W3        30.10S
FLAGSTAFF, AZ  SUNNY     69  26  20 SW10      30.31F

$$

REGIONAL REPORTS    NEVADA/IDAHO/WYOMING

CITY           SKY/WX    TMP DP  RH WIND       PRES   REMARKS
LAS VEGAS, NV  PTSUNNY   76  17  11 E3        30.05S
ELY, NY        SUNNY     61   8  12 VRB5      30.27F
ELKO, NV       SUNNY     52  13  21 CALM      30.25F
POCATELLO, ID  SUNNY     63  26  24 SW8       30.21S
BURLEY, ID     SUNNY     63  27  25 N5        30.17F
FORT BRIDGER,    N/A     64  10  12 W12G17    30.31F
EVANSTON, WY   SUNNY     60  12  15 SW7       30.30S
ROCK SPRINGS,  SUNNY     58  11  15 W12       30.28R
KEMMERER, WY   SUNNY     57  14  18 W10G16    30.30F

$$




USA.gov is the U.S. government's official web portal to all federal, state and local government web resources and services.